Location: Unspecified
(38.0278°N, 0.0000°E)
Time: 21:56:08
(UTC+00:00)

CZ-6A DEB - Visible Passes

Search period start: 04 April 2026 00:00
Search period end: 14 April 2026 00:00
Orbit: 610 x 711 km, 98.6° (Epoch: 29 March)

Date Brightness Start Highest point End Pass type
(mag) Time Alt. Az. Time Alt. Az. Time Alt. Az.
4 Apr ? 20:50:53 43° NNE 20:50:53 43° NNE 20:54:05 10° N visible
5 Apr ? 19:42:39 13° ENE 19:42:39 13° ENE 19:44:49 10° NE visible
5 Apr ? 21:20:38 37° NW 21:20:38 37° NW 21:23:31 10° NNW visible
6 Apr ? 20:12:22 25° NE 20:12:22 25° NE 20:15:32 10° NNE visible
6 Apr ? 21:50:21 22° WNW 21:50:21 22° WNW 21:52:29 10° NW visible
7 Apr ? 20:42:03 42° NNE 20:42:03 42° NNE 20:45:26 10° N visible
7 Apr ? 22:20:02 11° WNW 22:20:02 11° WNW 22:20:33 10° WNW visible
8 Apr ? 19:33:43 10° ENE 19:34:08 10° ENE 19:34:48 10° NE visible
8 Apr ? 21:11:42 45° NNW 21:11:42 45° NNW 21:14:53 10° NNW visible
9 Apr ? 20:03:20 20° ENE 20:03:20 20° ENE 20:06:26 10° NNE visible
9 Apr ? 21:41:19 28° WNW 21:41:19 28° WNW 21:43:54 10° NNW visible
10 Apr ? 20:32:54 37° NE 20:32:54 37° NE 20:36:25 10° N visible
10 Apr ? 22:10:52 15° WNW 22:10:52 15° WNW 22:12:14 10° NW visible
11 Apr ? 21:02:26 53° N 21:02:26 53° N 21:05:53 10° NNW visible
12 Apr ? 19:53:58 16° ENE 19:54:10 16° ENE 19:56:53 10° NNE visible
12 Apr ? 21:31:55 36° NW 21:31:55 36° NW 21:34:56 10° NNW visible
13 Apr ? 20:23:26 30° ENE 20:23:26 30° ENE 20:27:01 10° N visible
13 Apr ? 22:01:23 19° WNW 22:01:23 19° WNW 22:03:26 10° NW visible
